262  
ASUS44 KMAF 270810  
RWRMAF  
MIDLAND AREA WEATHER ROUNDUP  
NATIONAL WEATHER SERVICE MIDLAND TX  
300 AM CDT THU APR 27 2017  
   
..IN SOUTHWEST TEXAS AND SOUTHEAST NEW MEXICO
 
 
 
CITY SKY/WX TMP DP RH WIND PRES REMARKS
 
ALPINE PTCLDY 59 21 22 S5 29.89S  
ANDREWS FAIR 52 33 48 S7 29.74F  
ARTESIA CLEAR 52 28 40 S9 29.71F  
BIG SPRING CLEAR 52 35 52 SE8 29.77R  
CARLSBAD CLEAR 57 25 29 S9 29.71S  
DRYDEN N/A 59 33 37 VRB3 29.78F  
FORT STOCKTON CLEAR 61 31 32 S17G24 29.75F  
GUAD PASS CLEAR 63 18 17 W37G47 29.79F  
HOBBS CLEAR 48 32 53 S3 29.75F  
MARFA CLOUDY 47 19 33 N3 29.88F  
MIDLAND AIRPK CLEAR 58 33 39 S13 29.75F  
MIDLAND INTL CLEAR 58 32 37 S14 29.74F  
ODESSA CLEAR 59 30 33 S13 29.75F  
PECOS CLEAR 52 30 42 E5 29.70F  
PRESIDIO FAIR 69 25 19 N10 29.79R  
SEMINOLE CLEAR 51 33 51 CALM 29.73F  
SNYDER CLEAR N/A N/A N/A CALM 29.74S  
WINK CLEAR 57 33 40 SE12 29.71F  

   
..OTHER STATIONS IN TEXAS
 
 
 
CITY SKY/WX TMP DP RH WIND PRES REMARKS
 
ABILENE CLOUDY 48 41 76 S6 29.75S  
AMARILLO PTCLDY 47 35 63 SE14 29.75F  
AUSTIN CLEAR 50 46 86 N3 29.77F  
BROWNSVILLE CLEAR 75 70 84 N5 29.70S  
CORPUS CHRISTI CLEAR 69 54 58 NE23 29.75F  
DALLAS FTW PTCLDY 52 47 83 S3 29.75F  
DEL RIO CLEAR 59 42 53 CALM 29.77R  
EL PASO PTCLDY 71 20 14 W16G30 29.78S  
HOUSTON INT PTCLDY 59 51 75 NE8 29.78F  
LUBBOCK PTCLDY 46 36 68 E7 29.73F  
SAN ANGELO CLEAR 53 38 56 S8 29.77S  
SAN ANTONIO CLEAR 59 44 57 SW3 29.79S  
WACO CLEAR 46 45 96 CALM 29.78F  
WICHITA FALLS NOT AVBL  

   
..OTHER LOCATIONS IN NEW MEXICO
 
 
 
CITY SKY/WX TMP DP RH WIND PRES REMARKS
 
ALAMOGORDO CLEAR 55 21 26 S9 29.78S  
ALBUQUERQUE PTCLDY 55 23 28 SW10 29.76F  
CANNON AFB CLOUDY 52 36 54 E9 29.73S  
CLOVIS CLOUDY 50 34 53 SE13 29.74F  
HOLLOMAN AFB CLEAR 59 19 21 S8 29.79R  
ROSWELL CLEAR 53 27 36 SW8 N/A  
RUIDOSO CLEAR 54 14 20 W13G20 29.85S  
SANTA FE CLOUDY 41 26 55 W3 29.76F  
TRUTH OR CONSE CLEAR 61 19 19 CALM 29.79R  
TUCUMCARI CLOUDY 52 43 71 MISG 29.67F  

 
 
 
CLICK HERE TO GO TO PREVIOUS BULLETINS.

The Nexlab TX Page
The Nexlab NM Page Main Text Page